User: anonymous   Login
Location: Unspecified
(0.0000°N, 0.0000°E)
Time: 23:33:45
(UTC+00:00)
Language:

COSMOS 2468 - Orbit

View from above orbital plane
View from above orbital plane
View from above satellite
View from above satellite

Ground track
Ground track

The orbit data is extracted from the following two-line orbital elements,

1 37154U 10043C   15126.50017282  .00000023  00000-0  93569-4 0  9999
2 37154 082.4606 083.6725 0013418 173.7973 186.3265 12.42898705211318
Epoch (UTC): 06 May 2015 12:00:14
Eccentricity: 0.0013418
inclination: 82.4606°
perigee height: 1484 km
apogee height: 1505 km
right ascension of ascending node: 83.6725°
argument of perigee: 173.7973°
revolutions per day: 12.42898705
mean anomaly at epoch: 186.3265°
orbit number at epoch: 21131

The dashed part of the orbit path shows where the satellite is in the earth's shadow,  

DLR